STARLINK-34218, 64338

Orbit data source: Space-Track

STARLINK-34218, 64338 is a payload satellite owned by SpaceX/Seattle (US) in LEO that was launched on Tue, 10 Jun 2025 UTC via an FALCON 9 launch vehicle from the Air Force Eastern Test Range (AFETR). Payload-class satellites include a variety of spacecraft equipped with specific instruments for various scientific and technological missions. These include communications satellites like Starlink; space stations such as the ISS; scientific satellites like the Hubble; Earth observation satellites from companies like Planet Labs, Umbra, and HawkEye 360; GPS; miniature CubeSats for education and research; and military/defense satellites.

Loading next visibility...
Identifier
64338, 2025-124X
Orbit
LEO
Country
Flag of USUS
Related business
Manufacturer
SpaceX/Seattle
Mission
Operational Commercial Communications
Bus & Motor
STARLINK V2MO, Unknown motor
Mass
575 kg wet, ~530 kg dry
Launch date (UTC)
2025-06-10 (9 months ago)
Launch vehicle
FALCON 9
Launch site
Air Force Eastern Test Range (AFETR)
Object type
Payload
Rocket body
Debris
Shape & HBR
Box + 2 Pan, 17.7 m
Radar Cross Section
36.964 m², Large (>1 m²)

Expand to show TLE details & history
Last TLE update: 18 hours ago

TLE from 18 hours ago
0 STARLINK-34218
1 64338U 25124X   26070.46418482  .00031854  00000-0  11614-2 0  9996
2 64338  43.0002 108.0710 0001238 265.9404  94.1306 15.27600085 42098
Epoch: 2026-03-11T11:08Z
TLE epoch observation values (Epoch: 2026-03-11T11:08:25.568Z)
Latitude
-0.00003°
Longitude
131.83639°
Altitude
482.826 km
Speed
7.626 km/s
True Right ascension
07h 12m 17s
True Declination
0° 00' 00"
Sunlit
Object was in full shadow at epoch
Visualization orbit readout
Latitude
Unknown
Longitude
Unknown
Altitude
Unknown
Speed
Unknown
Apparent Right ascension
Unknown
Apparent Declination
Unknown
Sunlit
N/A
Visualization observer readout
Local Sidereal Time
09:35:30
Azimuth
Unknown
Elevation
Unknown
Doppler factor
Unknown
Orbital elements
Apogee altitude
485.784 km
Perigee altitude
484.084 km
Semi-major axis
6,863.071 km
Eccentricity
0.00012
Inclination
43.0002°
RAAN
108.071°
Arg. of periapsis
265.9404°
True anomaly
94.14475°
Mean anomaly
94.1306°
Eccentric anomaly
94.13767°
Mean motion
3.81738 °/min
Orbital period
94.31 mins
BSTAR
0.0011614
Loading maneuver chart data...
Computing Atmospheric mass density...
Loading historical data...
Loading historical data...
Loading historical data...
Loading historical data...
Loading historical data...
Loading historical data...
Loading historical data...

Documentation

Showing up to 5 results
|